Погода в Осиновке

Россия / Самарская область     53°11′35″N   49°38′10″E
темп.,
°C
ветер,
м/с
пор.,
м/с
влажн.,
%
обл.,
%
осадки,
мм/ч
давл.,
гПа
погр.,
м
23 октября, сб
сб2301:00+10зюз513845 0.0 1009458
04:00+8юз412923 0.0 1010350
07:00+8зюз4129310 0.0 1011358
10:00+10зюз512786 0.0 1012574
13:00+14юз6135576 0.0 10121572
16:00+14зюз51246100 0.0 10121581
19:00+10юз3757100 0.0 1013153
22:00+9зюз1267100 0.0 101311
24 октября, вс
вс2401:00+9зсз1168100 0.1 101210
04:00+7ссз3791100 5.8 1011354
07:00+7зюз11928 0.5 101113
10:00+8з478399 0.6 1012622
13:00+9з475531 0.0 10131040
16:00+9з46595 0.0 10131045
19:00+6з247098 0.0 101472
22:00+5ссз2478100 0.0 1015118
25 октября, пн
пн2501:00+5всв1177100 0.0 101510
04:00+4ююв1177100 0.0 101410
07:00+4зюз1180100 0.0 101510
10:00+5сз337666 0.0 1015418
13:00+6ссз556247 0.0 10161048
16:00+4ссз5986100 0.1 1017780
19:00+3с6128381 0.1 1020807
22:00+2с612645 0.1 1022891
26 октября, вт
вт2601:000с612701 0.0 1025594
04:00−1с411745 0.0 1026473
07:00−1ссз387531 0.0 1027349
10:00+2ссз35575 0.0 1028405
13:00+4зсз344411 0.0 1028697
16:00+4зюз364380 0.0 1026740
19:00+2юз385162 0.0 1026222
22:00+1зюз3105647 0.0 1026279
27 октября, ср
ср2701:000зюз386547 0.0 1025214
04:000зюз3969100 0.0 1025248
07:00−1зюз397122 0.0 1024230
10:00+2зюз4957100 0.0 1024323
13:00+6зюз51046100 0.0 1023592
16:00+7зюз51143100 0.0 1021640
19:00+5зюз51348100 0.0 1021444
22:00+4юз41250100 0.0 1020416